Flag for U.S.A. Weather past 2 weeks in Charlottesville, Virginia, U.S.A.

Now
65 °F

Fog.


Feels Like: 65 °F
Forecast: 63 / 78 °F
Wind: No wind

Location: Charlottesville-Albemarle Airport

Current Time: Jul 3, 2015 at 4:48:19 AM

Latest Report: Jul 3, 2015 at 3:53 AM


Visibility: 4 mi

Pressure: 29.92 "Hg

Humidity: 94%

Dew point: 63 °F

Location of CharlottesvilleLocation

Historic Weather in Charlottesville — Graph

°F

Charlottesville temperature yesterday

Maximum temperature yesterday: 76 °F (at 1:53 PM)
Minimum temperature yesterday: 65 °F (at 11:53 PM)
Average temperature yesterday: 71 °F

Past Weeks' High & Low Weather Summary

 TemperatureHumidityPressure
High93 °F (Jun 23, 2:53 PM)97% (Jun 18, 4:53 AM)30.10 "Hg (Jun 18, 4:53 AM)
Low58 °F (Jun 29, 5:53 AM)40% (Jun 29, 12:53 PM)29.67 "Hg (Jun 28, 3:53 AM)
Average75 °F73%29.92 "Hg
* Reported Jun 18 3:53 AM — Jul 3 3:53 AM, Charlottesville, Weather by CustomWeather, © 2015

Note: Actual official high and low records may vary slightly from our data, if they occured in-between our weather recording intervals... More about our weather records

Advertising

Charlottesville weather history for previous 24 hours

 ConditionsComfort  
Time TempWeatherWind HumidityBarometerVisibility
3:53 AM
Fri, Jul 3
65 °FFog.No wind94%29.92 "Hg4 mi
2:53 AM65 °FFog.No wind94%29.91 "Hg4 mi
1:53 AM65 °FFog.No wind94%29.92 "Hg3 mi
12:53 AM65 °FFog.No wind97%29.92 "Hg2 mi
11:53 PM
Thu, Jul 2
65 °FFog.3 mph97%29.93 "Hg2 mi
10:53 PM66 °FFog.No wind93%29.90 "Hg5 mi
9:53 PM68 °FClear.No wind87%29.91 "Hg7 mi
8:53 PM68 °FSunny.No wind90%29.90 "Hg7 mi
7:53 PM73 °FSunny.3 mph74%29.89 "Hg7 mi
6:53 PM74 °FSunny.5 mph76%29.86 "Hg7 mi
5:53 PM75 °FSunny.No wind71%29.87 "Hg8 mi
4:53 PM74 °FPartly sunny.No wind74%29.88 "Hg7 mi
3:53 PM75 °FOvercast.3 mph71%29.90 "Hg8 mi
2:53 PM75 °FOvercast.No wind71%29.90 "Hg8 mi
1:53 PM76 °FOvercast.5 mph67%29.89 "Hg8 mi
12:53 PM75 °FMore clouds than sun.5 mph66%29.90 "Hg7 mi
11:53 AM75 °FMostly cloudy.7 mph64%29.90 "Hg6 mi
10:53 AM73 °FOvercast.7 mph69%29.89 "Hg5 mi
9:53 AM72 °FMore clouds than sun.10 mph71%29.89 "Hg6 mi
8:53 AM71 °FMostly cloudy.7 mph73%29.89 "Hg6 mi
7:53 AM70 °FOvercast.3 mph81%29.88 "Hg6 mi
6:53 AM70 °FMostly cloudy.No wind76%29.87 "Hg6 mi
5:53 AM70 °FOvercast.3 mph73%29.86 "Hg6 mi
4:53 AM70 °FPassing clouds.5 mph76%29.85 "Hg9 mi
Weather by CustomWeather, © 2015

See weather overviewHow to use our weather pages